STARLINK-1858 (47145 NORAD) Tracking and Keplerian Element Data
This shows tracking and keplerian element data for the satellite.
Feedback or suggestion? Click here.
Element | Value |
Catalog | 47145 |
Name | STARLINK-1858 |
Epoch Orbit | 177 |
Epoch Day | 15.91667824 |
Epoch Year | 2021 |
RAAN | 98.5771 |
Inclination | 53.0545 |
Eccentricity | 0.0002269 |
Argument of Perigee | 289.9573 |
Mean Anonmoly | 101.6903 |
Mean Motion | 15.6278258 |
Decay Rate | -0.00010479 |
L1 | 1 47145U 20088Z 21015.91667824 -.00010479 00000-0 -10861-3 0 9993 |
L2 | 2 47145 53.0545 98.5771 0002269 289.9573 101.6903 15.62782580 1773 |
Live tracking and technical data element details for STARLINK-1858 (NORAD 47145). STARLINK-1858 can be tracked NOW for your location showing map with azimuth and elevation plus other details from your city location.
Track the satellite on the map from your city or location and see movement details for azimuth, elevation, latitude, longitude, range, height, and movement on the map or in text.
IsCatalogInMostPopularTable: catalog: 47145, numindb: 17
Update: records affected: 1
GetName: 47145 STARLINK-1858
Hit Count: updated at: Sun, 17 Jan 2021 09:19:37 GMT